Location: Bothwell
(42.3833°S, 147.0000°E)
Time: 21:58:21
(UTC+11:00)

RS-44 - Pass Details

Date: 25 September 2022
Orbit: 1175 x 1510 km, 82.5° (Epoch: 29 November)

Event Time Altitude Azimuth Distance (km) Brightness Sun altitude
Exits shadow 21:18:08 14° 127° (SE) 3,346 ? -32.9°
Drops below altitude 10° 21:20:09 10° 140° (SE) 3,668 ? -33.2°
Sets 21:24:29 0° 158° (SSE) 4,679 ? -33.8°
